Location: American Medical Response
(33.3472°N, 96.5511°W)
Time: 21:05:48
(UTC+00:00)

SL-4 R/B - Pass Details

Date: 10 July 2022
Orbit: 425 x 653 km, 51.6° (Epoch: 11 August)

Event Time Altitude Azimuth Distance (km) Brightness Sun altitude
Rises 10:39:23 0° 317° (NW) 2,593 5.4 -9.0°
Reaches altitude 10° 10:41:31 10° 321° (NW) 1,745 4.5 -8.6°
Maximum altitude 10:45:27 61° 42° (NE) 621 2.6 -7.9°
Drops below altitude 10° 10:49:41 10° 123° (ESE) 1,880 5.1 -7.2°
Sets 10:52:04 0° 127° (SE) 2,816 5.9 -6.8°
